Location: *
(24.1434°N, 56.8729°E)
Time: 05:23:01
(UTC+00:00)

ARGOS Delta rocket - Pass Details

Date: 09 April 2020
Orbit: 634 x 839 km, 96.4° (Epoch: 27 May)

Event Time Altitude Azimuth Distance (km) Brightness Sun altitude
Rises 15:19:10 0° 159° (SSE) 3,217 6.9 -11.4°
Reaches altitude 10° 15:21:27 10° 155° (SSE) 2,322 6.1 -11.9°
Maximum altitude 15:26:31 58° 77° (ENE) 933 4.1 -13.0°
Drops below altitude 10° 15:31:49 10° 359° (N) 2,429 6.8 -14.2°
Sets 15:34:15 0° 356° (N) 3,378 7.6 -14.7°
